Home   Weather   Newport News   Past weeks

Flag for USA Past Weather in Newport News, Virginia, USA — Yesterday and Last 2 Weeks

Now
51 °F

Fog.


Feels Like: 51 °F
Forecast: 51 / 77 °F
Wind: No wind

Location: Newport News / Williamsburg International Airport

Current Time: Feb 25, 2017 at 6:45:06 am

Latest Report: Feb 25, 2017 at 5:54 am


Visibility: 0 mi

Pressure: 29.77 "Hg

Humidity: 96%

Dew Point: 50 °F

Location of Newport NewsLocation

Past Weather in Newport News — Graph

°F

Newport News Temperature Yesterday

Maximum temperature yesterday: 75 °F (at 12:54 pm)
Minimum temperature yesterday: 46 °F (at 4:54 am)
Average temperature yesterday: 58 °F

High & Low Weather Summary for the Past Weeks

 TemperatureHumidityPressure
High81 °F (Feb 12, 2:54 pm)100% (Feb 21, 2:54 am)30.48 "Hg (Feb 21, 2:54 am)
Low21 °F (Feb 17, 3:54 am)22% (Feb 13, 4:54 pm)29.45 "Hg (Feb 15, 2:35 pm)
Average50 °F64%29.94 "Hg
* Reported Feb 10 5:54 am — Feb 25 5:32 am, Newport News, Weather by CustomWeather, © 2017

Note: Actual official high and low records may vary slightly from our data, if they occured in-between our weather recording intervals... More about our weather records

Advertising

Newport News Weather History for the Previous 24 Hours

Scroll right to see more
 ConditionsComfort  
Time TempWeatherWind HumidityBarometerVisibility
5:32 am
Sat, Feb 25
54 °FFog.No wind97%29.78 "Hg0 mi
5:22 am54 °FFog.No wind100%29.78 "Hg1 mi
4:54 am54 °FFog.3 mph97%29.78 "Hg3 mi
3:54 am56 °FClear.5 mph93%29.78 "Hg10 mi
2:54 am54 °FFog.6 mph97%29.79 "Hg5 mi
2:23 am52 °FFog.No wind100%29.81 "Hg3 mi
1:54 am57 °FClear.3 mph93%29.82 "Hg8 mi
12:54 am60 °FClear.3 mph86%29.82 "Hg9 mi
11:54 pm
Fri, Feb 24
61 °FClear.6 mph87%29.82 "Hg10 mi
10:54 pm62 °FClear.6 mph86%29.84 "Hg10 mi
9:54 pm64 °FClear.10 mph81%29.84 "Hg10 mi
8:54 pm65 °FClear.12 mph81%29.85 "Hg10 mi
7:54 pm66 °FClear.12 mph78%29.85 "Hg10 mi
6:54 pm67 °FClear.8 mph76%29.85 "Hg10 mi
5:54 pm66 °FClear.6 mph75%29.85 "Hg10 mi
4:54 pm69 °FSunny.9 mph68%29.85 "Hg10 mi
3:54 pm71 °FBroken clouds.12 mph63%29.86 "Hg10 mi
2:54 pm72 °FPartly sunny.13 mph59%29.87 "Hg10 mi
12:54 pm75 °FPartly sunny.9 mph50%29.90 "Hg10 mi
11:54 am73 °FSunny.5 mph57%29.93 "Hg10 mi
10:54 am69 °FPartly sunny.7 mph66%29.95 "Hg10 mi
9:54 am68 °FSunny.8 mph70%29.97 "Hg10 mi
8:54 am63 °FSunny.3 mph81%29.96 "Hg10 mi
7:54 am54 °FSunny.No wind97%29.95 "Hg8 mi
7:33 am50 °FScattered clouds.No wind96%29.95 "Hg8 mi
6:54 am47 °FFog.3 mph100%29.94 "Hg0 mi
6:34 am47 °FFog.No wind100%29.95 "Hg1 mi
6:18 am48 °FFog.3 mph96%29.94 "Hg1 mi
6:05 am47 °FFog.No wind100%29.95 "Hg0 mi
Weather by CustomWeather, © 2017

See weather overviewHow to use our weather pages